N5CSU Weather Reports


time (UTC)temp
C
wind
direction
speed
KPH
gust
KPH
rain 1hr
cm
rain 24hr
cm
rain mn
cm
humidity
%
barometer
mb
20260831200208 37 193 1.6 1.6 0.00 0.00 0.00 33 1015.3
20260831195658 37 186 0.0 0.0 0.00 0.00 0.00 31 1015.4
20260831195154 38 215 0.0 1.6 0.00 0.00 0.00 30 1015.5
20260831194648 38 180 1.6 1.6 0.00 0.00 0.00 32 1015.5
20260831194144 37 223 0.0 0.0 0.00 0.00 0.00 33 1015.6
20260831193638 37 207 1.6 3.2 0.00 0.00 0.00 33 1015.7
20260831193134 36 177 0.0 0.0 0.00 0.00 0.00 35 1015.9
20260831192628 37 190 0.0 0.0 0.00 0.00 0.00 33 1015.9
20260831192124 36 165 3.2 3.2 0.00 0.00 0.00 37 1016.0
20260831191620 36 278 0.0 1.6 0.00 0.00 0.00 36 1015.8
20260831191116 37 258 1.6 1.6 0.00 0.00 0.00 35 1015.9
20260831190610 37 185 1.6 1.6 0.00 0.00 0.00 36 1016.0
20260831190109 37 198 0.0 0.0 0.00 0.00 0.00 36 1016.1
20260831185604 37 193 1.6 1.6 0.00 0.00 0.00 37 1016.0
20260831185100 37 196 1.6 1.6 0.00 0.00 0.00 37 1016.1
20260831184559 36 225 1.6 3.2 0.00 0.00 0.00 38 1016.0
20260831184055 36 185 1.6 3.2 0.00 0.00 0.00 39 1016.4
20260831183554 37 235 0.0 1.6 0.00 0.00 0.00 38 1016.3
20260831183048 37 207 0.0 0.0 0.00 0.00 0.00 38 1016.3
20260831182542 37 33 0.0 0.0 0.00 0.00 0.00 38 1016.1
20260831182038 37 230 0.0 1.6 0.00 0.00 0.00 38 1016.5
20260831181532 37 221 0.0 0.0 0.00 0.00 0.00 37 1016.6
20260831181032 37 188 0.0 0.0 0.00 0.00 0.00 37 1016.8
20260831180527 37 184 1.6 3.2 0.00 0.00 0.00 38 1016.8
20260831180022 37 218 0.0 0.0 0.00 0.00 0.00 39 1017.0
20260831175517 37 236 1.6 1.6 0.00 0.00 0.00 38 1017.0
20260831175014 37 200 0.0 0.0 0.00 0.00 0.00 40 1017.1
20260831174509 37 193 0.0 0.0 0.00 0.00 0.00 39 1017.2
20260831174008 36 159 3.2 3.2 0.00 0.00 0.00 39 1017.3
20260831173506 36 207 1.6 1.6 0.00 0.00 0.00 41 1017.2
20260831173003 36 212 0.0 1.6 0.00 0.00 0.00 40 1017.3
20260831172458 36 196 0.0 1.6 0.00 0.00 0.00 41 1017.3
20260831171953 36 150 1.6 3.2 0.00 0.00 0.00 41 1017.4
20260831171448 36 197 0.0 0.0 0.00 0.00 0.00 41 1017.6
20260831170946 36 202 0.0 0.0 0.00 0.00 0.00 42 1017.7
20260831170441 36 192 0.0 0.0 0.00 0.00 0.00 41 1017.6
20260831165938 36 198 0.0 0.0 0.00 0.00 0.00 41 1017.8
20260831165428 36 194 0.0 0.0 0.00 0.00 0.00 42 1017.6
20260831164924 36 183 1.6 1.6 0.00 0.00 0.00 42 1017.8
20260831164420 35 210 0.0 0.0 0.00 0.00 0.00 44 1017.9
20260831163915 35 198 0.0 0.0 0.00 0.00 0.00 44 1017.8
20260831163411 35 209 0.0 0.0 0.00 0.00 0.00 44 1017.7
20260831162909 35 184 0.0 0.0 0.00 0.00 0.00 45 1017.8
20260831162405 35 180 0.0 0.0 0.00 0.00 0.00 45 1017.8
20260831161903 35 193 0.0 0.0 0.00 0.00 0.00 46 1017.8
20260831161400 34 197 0.0 1.6 0.00 0.00 0.00 47 1017.8
20260831160855 35 219 1.6 1.6 0.00 0.00 0.00 47 1017.8
20260831160350 34 202 0.0 0.0 0.00 0.00 0.00 47 1018.0
20260831155844 33 189 0.0 1.6 0.00 0.00 0.00 49 1017.9
20260831155338 33 206 0.0 0.0 0.00 0.00 0.00 50 1017.9
20260831154834 33 211 0.0 0.0 0.00 0.00 0.00 50 1017.8
20260831154330 32 215 0.0 0.0 0.00 0.00 0.00 51 1017.9
20260831153829 32 192 0.0 0.0 0.00 0.00 0.00 53 1018.0
20260831153325 32 190 0.0 0.0 0.00 0.00 0.00 54 1018.0
20260831152821 31 193 0.0 0.0 0.00 0.00 0.00 57 1017.9
20260831152316 31 194 0.0 0.0 0.00 0.00 0.00 57 1017.8
20260831151811 31 191 0.0 0.0 0.00 0.00 0.00 59 1017.7
20260831151310 31 187 0.0 0.0 0.00 0.00 0.00 59 1017.8
20260831150806 31 189 0.0 0.0 0.00 0.00 0.00 59 1017.8
20260831150301 30 208 0.0 0.0 0.00 0.00 0.00 61 1017.7
20260831145800 30 191 0.0 0.0 0.00 0.00 0.00 63 1017.8
20260831145256 30 197 0.0 0.0 0.00 0.00 0.00 63 1017.9
20260831144752 30 186 0.0 0.0 0.00 0.00 0.00 65 1017.7
20260831144248 29 188 0.0 0.0 0.00 0.00 0.00 64 1017.5
20260831143748 30 189 0.0 0.0 0.00 0.00 0.00 66 1017.8
20260831143243 29 228 0.0 0.0 0.00 0.00 0.00 66 1017.8
20260831142738 28 197 0.0 0.0 0.00 0.00 0.00 68 1017.7
20260831142234 28 199 0.0 0.0 0.00 0.00 0.00 68 1017.6
20260831141733 28 204 0.0 0.0 0.00 0.00 0.00 69 1017.9
20260831141228 28 189 0.0 0.0 0.00 0.00 0.00 69 1017.6
20260831140728 28 203 0.0 0.0 0.00 0.00 0.00 70 1017.7
20260831140222 28 209 0.0 0.0 0.00 0.00 0.00 70 1017.6
20260831135720 28 195 0.0 0.0 0.00 0.00 0.00 70 1017.6
20260831135216 28 212 0.0 0.0 0.00 0.00 0.00 71 1017.8
20260831134712 27 210 0.0 0.0 0.00 0.00 0.00 71 1017.6
20260831134208 27 184 0.0 0.0 0.00 0.00 0.00 71 1017.4
20260831133706 27 186 0.0 0.0 0.00 0.00 0.00 72 1017.4
20260831133201 27 197 0.0 0.0 0.00 0.00 0.00 73 1017.3
20260831132657 27 203 0.0 0.0 0.00 0.00 0.00 73 1017.2
20260831132156 27 194 0.0 0.0 0.00 0.00 0.00 73 1017.1
20260831131651 27 203 0.0 0.0 0.00 0.00 0.00 74 1017.1
20260831131148 26 190 0.0 0.0 0.00 0.00 0.00 74 1017.1
20260831130643 26 191 0.0 0.0 0.00 0.00 0.00 74 1017.1
20260831130138 26 191 0.0 0.0 0.00 0.00 0.00 75 1017.0
20260831125636 26 179 0.0 0.0 0.00 0.00 0.00 75 1016.9
20260831125132 26 201 0.0 0.0 0.00 0.00 0.00 75 1016.9
20260831124628 26 196 0.0 0.0 0.00 0.00 0.00 75 1016.9
20260831124124 26 196 0.0 0.0 0.00 0.00 0.00 75 1016.7
20260831123623 25 196 0.0 0.0 0.00 0.00 0.00 75 1016.7
20260831123123 25 196 0.0 0.0 0.00 0.00 0.00 75 1016.7
20260831122622 25 201 0.0 0.0 0.00 0.00 0.00 75 1016.5
20260831122118 25 204 0.0 0.0 0.00 0.00 0.00 75 1016.3
20260831121617 25 203 0.0 0.0 0.00 0.00 0.00 75 1016.3
20260831121114 25 203 0.0 0.0 0.00 0.00 0.00 75 1016.1
20260831120609 25 204 0.0 0.0 0.00 0.00 0.00 75 1016.4
20260831120104 26 198 0.0 0.0 0.00 0.00 0.00 75 1016.0
20260831115600 26 202 0.0 0.0 0.00 0.00 0.00 75 1015.8
20260831115056 26 202 0.0 0.0 0.00 0.00 0.00 75 1015.9
20260831114554 26 201 0.0 0.0 0.00 0.00 0.00 74 1015.8
20260831114049 26 201 0.0 0.0 0.00 0.00 0.00 74 1015.8
20260831113548 26 195 0.0 0.0 0.00 0.00 0.00 74 1015.9
20260831113045 26 196 0.0 0.0 0.00 0.00 0.00 74 1015.8
20260831112543 26 196 0.0 0.0 0.00 0.00 0.00 74 1015.5
20260831112039 26 196 0.0 0.0 0.00 0.00 0.00 73 1015.6
20260831111535 26 196 0.0 0.0 0.00 0.00 0.00 73 1015.5
20260831111030 26 196 0.0 0.0 0.00 0.00 0.00 73 1015.4
20260831110525 26 196 0.0 0.0 0.00 0.00 0.00 72 1015.2
20260831110020 26 196 0.0 0.0 0.00 0.00 0.00 72 1015.3
20260831105514 26 196 0.0 0.0 0.00 0.00 0.00 72 1015.5
20260831105009 26 195 0.0 0.0 0.00 0.00 0.00 72 1015.6
20260831104505 26 195 0.0 0.0 0.00 0.00 0.00 71 1015.4
20260831104001 26 195 0.0 0.0 0.00 0.00 0.00 71 1015.5
20260831103500 26 195 0.0 0.0 0.00 0.00 0.00 71 1015.5
20260831102957 26 193 0.0 0.0 0.00 0.00 0.00 70 1015.4
20260831102456 26 191 0.0 0.0 0.00 0.00 0.00 70 1015.4
20260831101952 26 194 0.0 0.0 0.00 0.00 0.00 69 1015.4
20260831101447 26 193 0.0 0.0 0.00 0.00 0.00 69 1015.4
20260831100943 26 197 0.0 0.0 0.00 0.00 0.00 69 1015.5
20260831100439 26 199 0.0 0.0 0.00 0.00 0.00 69 1015.3
20260831095934 27 201 0.0 0.0 0.00 0.00 0.00 68 1015.3
20260831095433 27 201 0.0 0.0 0.00 0.00 0.00 68 1015.3
20260831094928 27 201 0.0 0.0 0.00 0.00 0.00 68 1015.4
20260831094424 27 193 0.0 0.0 0.00 0.00 0.00 68 1015.3
20260831093920 27 196 0.0 0.0 0.00 0.00 0.00 68 1015.3
20260831093414 27 194 0.0 0.0 0.00 0.00 0.00 67 1015.4
20260831092911 27 193 0.0 0.0 0.00 0.00 0.00 67 1015.1
20260831092407 27 198 0.0 0.0 0.00 0.00 0.00 67 1015.1
20260831091901 27 200 0.0 0.0 0.00 0.00 0.00 67 1014.9
20260831091357 27 196 0.0 0.0 0.00 0.00 0.00 66 1015.1
20260831090852 27 195 0.0 0.0 0.00 0.00 0.00 66 1015.0
20260831090348 27 195 0.0 0.0 0.00 0.00 0.00 65 1015.0
20260831085845 27 196 0.0 0.0 0.00 0.00 0.00 65 1015.1
20260831085345 27 196 0.0 0.0 0.00 0.00 0.00 65 1015.0
20260831084844 27 191 0.0 0.0 0.00 0.00 0.00 64 1015.1
20260831084341 27 197 0.0 0.0 0.00 0.00 0.00 64 1015.0
20260831083837 27 198 0.0 0.0 0.00 0.00 0.00 64 1015.0
20260831083332 27 199 0.0 0.0 0.00 0.00 0.00 63 1015.0
20260831082831 27 201 0.0 0.0 0.00 0.00 0.00 63 1015.0
20260831082326 27 197 0.0 0.0 0.00 0.00 0.00 62 1014.9
20260831081822 27 198 0.0 0.0 0.00 0.00 0.00 62 1014.9
20260831081317 27 198 0.0 0.0 0.00 0.00 0.00 62 1014.8
20260831080812 27 198 0.0 0.0 0.00 0.00 0.00 61 1014.8
20260831080307 27 198 0.0 0.0 0.00 0.00 0.00 61 1014.7
20260831075803 27 199 0.0 0.0 0.00 0.00 0.00 60 1014.8
20260831075258 27 199 0.0 0.0 0.00 0.00 0.00 60 1014.6
20260831074758 27 196 0.0 0.0 0.00 0.00 0.00 61 1014.5
20260831074251 27 196 0.0 0.0 0.00 0.00 0.00 61 1014.7
20260831073748 27 196 0.0 0.0 0.00 0.00 0.00 62 1014.7
20260831073246 27 201 0.0 0.0 0.00 0.00 0.00 62 1014.6
20260831072741 27 209 0.0 0.0 0.00 0.00 0.00 63 1014.6
20260831072238 27 203 0.0 0.0 0.00 0.00 0.00 63 1014.6
20260831071739 27 202 0.0 0.0 0.00 0.00 0.00 63 1014.6
20260831071233 27 202 0.0 0.0 0.00 0.00 0.00 63 1014.6
20260831070733 27 202 0.0 0.0 0.00 0.00 0.00 62 1014.7
20260831070226 27 203 0.0 0.0 0.00 0.00 0.00 61 1014.9
20260831065725 27 203 0.0 0.0 0.00 0.00 0.00 61 1014.8
20260831065224 27 203 0.0 0.0 0.00 0.00 0.00 61 1014.6
20260831064719 27 203 0.0 0.0 0.00 0.00 0.00 60 1014.6
20260831064214 27 203 0.0 0.0 0.00 0.00 0.00 60 1014.6
20260831063710 28 203 0.0 0.0 0.00 0.00 0.00 60 1014.7
20260831063205 28 202 0.0 0.0 0.00 0.00 0.00 60 1014.7
20260831062705 28 202 0.0 0.0 0.00 0.00 0.00 60 1014.7
20260831062206 28 202 0.0 0.0 0.00 0.00 0.00 60 1014.6
20260831061703 28 203 0.0 0.0 0.00 0.00 0.00 59 1014.7
20260831061159 28 203 0.0 0.0 0.00 0.00 0.00 59 1014.7
20260831060655 28 203 0.0 0.0 0.00 0.00 0.00 59 1014.6
20260831060155 28 203 0.0 0.0 0.00 0.00 0.00 59 1014.6
20260831055654 28 203 0.0 0.0 0.00 0.00 0.00 59 1014.8
20260831055149 28 202 0.0 0.0 0.00 0.00 0.00 58 1014.7
20260831054644 28 202 0.0 0.0 0.00 0.00 0.00 58 1014.7
20260831054143 28 202 0.0 0.0 0.00 0.00 0.00 58 1014.7
20260831053638 28 202 0.0 0.0 0.00 0.00 0.00 57 1014.7
20260831053137 28 202 0.0 0.0 0.00 0.00 0.00 57 1014.6
20260831052636 28 202 0.0 0.0 0.00 0.00 0.00 57 1014.6
20260831052135 28 202 0.0 0.0 0.00 0.00 0.00 56 1014.5
20260831051634 29 202 0.0 0.0 0.00 0.00 0.00 56 1014.6
20260831051127 29 202 0.0 0.0 0.00 0.00 0.00 56 1014.5
20260831050621 29 202 0.0 0.0 0.00 0.00 0.00 55 1014.4
20260831050115 30 202 0.0 0.0 0.00 0.00 0.00 54 1014.5
20260831045614 30 202 0.0 0.0 0.00 0.00 0.00 53 1014.5
20260831045110 30 202 0.0 0.0 0.00 0.00 0.00 53 1014.6
20260831044605 30 202 0.0 0.0 0.00 0.00 0.00 53 1014.5
20260831044100 30 196 0.0 0.0 0.00 0.00 0.00 52 1014.5
20260831043555 30 201 0.0 0.0 0.00 0.00 0.00 52 1014.6
20260831043050 30 201 0.0 0.0 0.00 0.00 0.00 51 1014.4
20260831042549 30 201 0.0 0.0 0.00 0.00 0.00 51 1014.6
20260831042046 30 202 0.0 0.0 0.00 0.00 0.00 51 1014.4
20260831041540 30 201 0.0 0.0 0.00 0.00 0.00 50 1014.4
20260831041039 31 201 0.0 0.0 0.00 0.00 0.00 50 1014.4
20260831040534 31 202 0.0 0.0 0.00 0.00 0.00 50 1014.4
20260831040033 31 200 0.0 0.0 0.00 0.00 0.00 50 1014.3
20260831035526 31 202 0.0 0.0 0.00 0.00 0.00 50 1014.2
20260831035021 31 202 0.0 0.0 0.00 0.00 0.00 49 1014.3
20260831034515 31 204 0.0 0.0 0.00 0.00 0.00 49 1014.3
20260831034010 31 204 0.0 0.0 0.00 0.00 0.00 49 1014.1
20260831033506 31 204 0.0 0.0 0.00 0.00 0.00 48 1014.1
20260831033001 31 204 0.0 0.0 0.00 0.00 0.00 49 1014.1
20260831032501 31 203 0.0 0.0 0.00 0.00 0.00 48 1014.1
20260831031956 31 186 0.0 0.0 0.00 0.00 0.00 49 1014.1
20260831031456 31 199 0.0 0.0 0.00 0.00 0.00 48 1014.1
20260831030955 31 199 0.0 0.0 0.00 0.00 0.00 48 1014.0
20260831030454 31 199 0.0 0.0 0.00 0.00 0.00 48 1014.2
20260831025953 31 199 0.0 0.0 0.00 0.00 0.00 47 1014.2
20260831025452 32 201 0.0 0.0 0.00 0.00 0.00 47 1014.0
20260831024948 32 191 0.0 0.0 0.00 0.00 0.00 47 1014.0
20260831024443 32 204 0.0 0.0 0.00 0.00 0.00 46 1013.9
20260831023942 32 202 0.0 0.0 0.00 0.00 0.00 46 1013.8
20260831023441 32 199 0.0 0.0 0.00 0.00 0.00 46 1013.6
20260831022936 32 201 0.0 0.0 0.00 0.00 0.00 45 1013.7
20260831022435 32 208 0.0 0.0 0.00 0.00 0.00 45 1013.6
20260831021930 32 192 0.0 0.0 0.00 0.00 0.00 45 1013.6
20260831021429 32 196 0.0 0.0 0.00 0.00 0.00 45 1013.5
20260831020926 32 204 0.0 0.0 0.00 0.00 0.00 44 1013.4
20260831020425 32 194 0.0 0.0 0.00 0.00 0.00 44 1013.2
20260831015920 33 197 0.0 0.0 0.00 0.00 0.00 44 1013.1
20260831015416 33 209 0.0 0.0 0.00 0.00 0.00 44 1013.2
20260831014911 33 206 0.0 0.0 0.00 0.00 0.00 43 1013.0
20260831014411 33 205 0.0 0.0 0.00 0.00 0.00 43 1013.2
20260831013906 33 193 0.0 0.0 0.00 0.00 0.00 43 1013.2
20260831013402 33 202 0.0 0.0 0.00 0.00 0.00 43 1013.0
20260831012857 33 201 0.0 0.0 0.00 0.00 0.00 43 1013.1
20260831012352 33 204 0.0 0.0 0.00 0.00 0.00 43 1012.9
20260831011851 33 191 0.0 0.0 0.00 0.00 0.00 43 1013.0
20260831011346 33 199 0.0 0.0 0.00 0.00 0.00 43 1013.1
20260831010837 33 197 0.0 0.0 0.00 0.00 0.00 42 1012.8
20260831010336 33 200 0.0 0.0 0.00 0.00 0.00 41 1012.8
20260831005832 34 197 0.0 0.0 0.00 0.00 0.00 41 1012.6
20260831005328 34 219 0.0 0.0 0.00 0.00 0.00 41 1012.8
20260831004827 34 203 1.6 1.6 0.00 0.00 0.00 40 1012.8
20260831004324 35 277 0.0 1.6 0.00 0.00 0.00 40 1012.7
20260831003819 35 202 0.0 0.0 0.00 0.00 0.00 40 1012.6
20260831003316 35 196 0.0 0.0 0.00 0.00 0.00 40 1012.6
20260831002815 35 212 0.0 0.0 0.00 0.00 0.00 40 1012.5
20260831002314 35 204 0.0 0.0 0.00 0.00 0.00 40 1012.8
20260831001810 35 196 0.0 0.0 0.00 0.00 0.00 40 1012.9
20260831001305 35 198 0.0 0.0 0.00 0.00 0.00 40 1012.8
20260831000803 35 203 0.0 1.6 0.00 0.00 0.00 40 1012.8
20260831000303 35 225 0.0 0.0 0.00 0.00 0.00 40 1012.9
20260830235800 36 209 0.0 1.6 0.00 0.00 0.00 40 1012.9
20260830235255 36 202 0.0 0.0 0.00 0.00 0.00 39 1012.8
20260830234750 36 199 0.0 0.0 0.00 0.00 0.00 39 1012.8
20260830234247 36 231 0.0 1.6 0.00 0.00 0.00 39 1012.7
20260830233742 36 190 0.0 1.6 0.00 0.00 0.00 39 1012.8
20260830233238 36 187 0.0 0.0 0.00 0.00 0.00 39 1012.9
20260830232733 36 193 0.0 0.0 0.00 0.00 0.00 39 1013.1
20260830232229 36 185 0.0 0.0 0.00 0.00 0.00 38 1012.9
20260830231725 36 202 0.0 0.0 0.00 0.00 0.00 37 1012.9
20260830231224 36 190 0.0 1.6 0.00 0.00 0.00 36 1013.0
20260830230719 36 218 0.0 0.0 0.00 0.00 0.00 37 1012.8
20260830230215 37 206 0.0 0.0 0.00 0.00 0.00 37 1013.0
20260830225709 37 208 0.0 1.6 0.00 0.00 0.00 36 1013.0
20260830225209 37 212 0.0 0.0 0.00 0.00 0.00 36 1013.3
20260830224708 37 196 0.0 0.0 0.00 0.00 0.00 36 1013.1
20260830224204 37 191 0.0 0.0 0.00 0.00 0.00 36 1013.1
20260830223701 37 207 0.0 0.0 0.00 0.00 0.00 35 1013.1
20260830223156 38 257 1.6 1.6 0.00 0.00 0.00 34 1013.1
20260830222651 38 216 1.6 1.6 0.00 0.00 0.00 34 1013.1
20260830222146 38 197 0.0 0.0 0.00 0.00 0.00 34 1013.2
20260830221642 38 187 0.0 0.0 0.00 0.00 0.00 34 1013.0
20260830221138 38 183 0.0 1.6 0.00 0.00 0.00 34 1012.9
20260830220633 38 257 1.6 1.6 0.00 0.00 0.00 33 1013.1
20260830220132 38 224 1.6 1.6 0.00 0.00 0.00 34 1013.1
20260830215631 38 179 1.6 3.2 0.00 0.00 0.00 33 1013.1
20260830215126 37 198 0.0 1.6 0.00 0.00 0.00 35 1013.0
20260830214621 37 211 0.0 0.0 0.00 0.00 0.00 33 1013.2
20260830214116 37 185 0.0 0.0 0.00 0.00 0.00 32 1013.2
20260830213615 37 216 0.0 0.0 0.00 0.00 0.00 33 1013.2
20260830213111 37 197 0.0 0.0 0.00 0.00 0.00 33 1013.3
20260830212606 37 202 0.0 1.6 0.00 0.00 0.00 34 1013.5
20260830212101 37 178 1.6 1.6 0.00 0.00 0.00 34 1013.6
20260830211555 37 200 1.6 1.6 0.00 0.00 0.00 34 1013.3
20260830211049 37 185 1.6 3.2 0.00 0.00 0.00 36 1013.6
20260830210544 37 213 0.0 1.6 0.00 0.00 0.00 34 1013.6
20260830210038 37 196 0.0 1.6 0.00 0.00 0.00 35 1013.6
20260830205536 36 184 1.6 3.2 0.00 0.00 0.00 37 1013.5
20260830205032 37 199 1.6 1.6 0.00 0.00 0.00 35 1013.9
20260830204531 38 236 0.0 1.6 0.00 0.00 0.00 35 1013.9
20260830204030 37 183 0.0 0.0 0.00 0.00 0.00 35 1013.9
20260830203527 37 221 0.0 0.0 0.00 0.00 0.00 34 1013.9
20260830203022 37 210 0.0 0.0 0.00 0.00 0.00 36 1014.0
20260830202521 37 154 0.0 0.0 0.00 0.00 0.00 36 1014.2
20260830202017 37 209 0.0 0.0 0.00 0.00 0.00 36 1014.1
20260830201516 37 189 0.0 0.0 0.00 0.00 0.00 36 1014.3
20260830201012 37 192 0.0 1.6 0.00 0.00 0.00 35 1014.5